EN

Hourly Weather Aberdour

Today, 15 June, Tuesday

Time Temperature Precipitation Wind Pressure Humidity
00:00 +8°C° 0 mm 3 mps 754 mmHg 90%
01:00 +7°C° 0 mm 3 mps 754 mmHg 92%
02:00 +7°C° 0 mm 2 mps 755 mmHg 93%
03:00 +7°C° 0 mm 2 mps 755 mmHg 94%
04:00 +7°C° 0 mm 2 mps 755 mmHg 91%
05:00 +8°C° 0 mm 2 mps 755 mmHg 88%
06:00 +9°C° 0 mm 2 mps 755 mmHg 85%
07:00 +12°C° 0 mm 2 mps 755 mmHg 78%
08:00 +13°C° 0 mm 2 mps 755 mmHg 72%
09:00 +14°C° 0 mm 2 mps 754 mmHg 65%
10:00 +14°C° 0 mm 3 mps 754 mmHg 63%
11:00 +16°C° 0 mm 3 mps 753 mmHg 61%
12:00 +17°C° 0 mm 4 mps 753 mmHg 58%
13:00 +17°C° 0 mm 4 mps 752 mmHg 60%
14:00 +17°C° 0 mm 4 mps 752 mmHg 62%
15:00 +15°C° 0 mm 4 mps 751 mmHg 64%
16:00 +15°C° 0 mm 4 mps 750 mmHg 66%
17:00 +14°C° 0 mm 4 mps 750 mmHg 68%
18:00 +14°C° 0 mm 4 mps 749 mmHg 69%
19:00 +14°C° 0 mm 4 mps 748 mmHg 70%
20:00 +14°C° 0 mm 3 mps 748 mmHg 71%
21:00 +14°C° 0 mm 3 mps 747 mmHg 72%
22:00 +14°C° 0.2 mm 3 mps 747 mmHg 76%
23:00 +14°C° 0.2 mm 4 mps 746 mmHg 80%

Tomorrow, 16 June, Wednesday

Time Temperature Precipitation Wind Pressure Humidity
00:00 +14°C° 0.2 mm 5 mps 746 mmHg 84%
01:00 +14°C° 0.4 mm 5 mps 745 mmHg 87%
02:00 +14°C° 0.4 mm 5 mps 745 mmHg 89%
03:00 +14°C° 0.4 mm 5 mps 745 mmHg 92%
04:00 +13°C° 0.2 mm 5 mps 745 mmHg 93%
05:00 +13°C° 0.2 mm 4 mps 745 mmHg 93%
06:00 +12°C° 0.2 mm 3 mps 745 mmHg 93%
07:00 +12°C° 0.3 mm 3 mps 745 mmHg 93%
08:00 +12°C° 0.3 mm 3 mps 745 mmHg 93%
09:00 +12°C° 0.3 mm 3 mps 745 mmHg 93%
10:00 +12°C° 0.1 mm 3 mps 745 mmHg 89%
11:00 +13°C° 0.1 mm 4 mps 745 mmHg 85%
12:00 +13°C° 0.1 mm 4 mps 745 mmHg 81%
13:00 +14°C° 0 mm 4 mps 745 mmHg 76%
14:00 +14°C° 0 mm 5 mps 745 mmHg 71%
15:00 +15°C° 0 mm 5 mps 745 mmHg 66%
16:00 +15°C° 0 mm 4 mps 745 mmHg 68%
17:00 +14°C° 0 mm 4 mps 746 mmHg 71%
18:00 +14°C° 0 mm 4 mps 746 mmHg 73%
19:00 +13°C° 0 mm 3 mps 746 mmHg 79%
20:00 +13°C° 0 mm 2 mps 746 mmHg 84%
21:00 +10°C° 0 mm 2 mps 746 mmHg 89%
22:00 +10°C° 0 mm 2 mps 746 mmHg 90%
23:00 +11°C° 0 mm 1 mps 746 mmHg 90%

Day after tomorrow, 17 June, Thursday

Time Temperature Precipitation Wind Pressure Humidity
00:00 +11°C° 0 mm 1 mps 746 mmHg 90%
01:00 +11°C° 0 mm 1 mps 746 mmHg 90%
02:00 +11°C° 0 mm 1 mps 747 mmHg 91%
03:00 +10°C° 0 mm 1 mps 747 mmHg 91%
04:00 +11°C° 0 mm 1 mps 747 mmHg 90%
05:00 +11°C° 0 mm 1 mps 747 mmHg 88%
06:00 +12°C° 0 mm 1 mps 747 mmHg 87%
07:00 +13°C° 0 mm 2 mps 747 mmHg 80%
08:00 +14°C° 0 mm 2 mps 747 mmHg 74%
09:00 +16°C° 0 mm 3 mps 748 mmHg 67%
10:00 +16°C° 0 mm 3 mps 748 mmHg 63%
11:00 +17°C° 0 mm 3 mps 748 mmHg 59%
12:00 +18°C° 0 mm 4 mps 748 mmHg 55%
13:00 +18°C° 0 mm 4 mps 748 mmHg 56%
14:00 +17°C° 0 mm 5 mps 748 mmHg 57%
15:00 +16°C° 0 mm 5 mps 748 mmHg 58%
16:00 +16°C° 0 mm 5 mps 749 mmHg 60%
17:00 +16°C° 0 mm 5 mps 749 mmHg 61%
18:00 +15°C° 0 mm 5 mps 749 mmHg 63%
19:00 +13°C° 0 mm 4 mps 750 mmHg 68%
20:00 +12°C° 0 mm 4 mps 750 mmHg 74%
21:00 +10°C° 0 mm 3 mps 751 mmHg 80%
22:00 +9°C° 0 mm 3 mps 751 mmHg 83%
23:00 +8°C° 0 mm 3 mps 752 mmHg 87%

18 June, Friday

Time Temperature Precipitation Wind Pressure Humidity
00:00 +7°C° 0 mm 2 mps 752 mmHg 90%
01:00 +7°C° 0 mm 2 mps 752 mmHg 90%
02:00 +7°C° 0 mm 2 mps 753 mmHg 90%
03:00 +8°C° 0 mm 1 mps 753 mmHg 90%
04:00 +8°C° 0 mm 1 mps 753 mmHg 89%
05:00 +9°C° 0 mm 1 mps 754 mmHg 88%
06:00 +10°C° 0 mm 1 mps 754 mmHg 87%
07:00 +10°C° 0 mm 1 mps 754 mmHg 86%
08:00 +10°C° 0 mm 2 mps 754 mmHg 85%
09:00 +10°C° 0 mm 3 mps 755 mmHg 84%
10:00 +11°C° 0 mm 3 mps 755 mmHg 81%
11:00 +11°C° 0 mm 4 mps 755 mmHg 77%
12:00 +12°C° 0 mm 4 mps 755 mmHg 74%
13:00 +12°C° 0 mm 4 mps 755 mmHg 73%
14:00 +12°C° 0 mm 4 mps 755 mmHg 73%
15:00 +12°C° 0 mm 4 mps 754 mmHg 73%
16:00 +11°C° 0 mm 4 mps 754 mmHg 76%
17:00 +11°C° 0 mm 4 mps 754 mmHg 79%
18:00 +10°C° 0 mm 4 mps 754 mmHg 83%
19:00 +10°C° 0 mm 3 mps 754 mmHg 84%
20:00 +10°C° 0 mm 3 mps 754 mmHg 86%
21:00 +9°C° 0 mm 2 mps 754 mmHg 88%
22:00 +9°C° 0 mm 2 mps 754 mmHg 90%
23:00 +9°C° 0 mm 2 mps 754 mmHg 91%

19 June, Saturday

Time Temperature Precipitation Wind Pressure Humidity
00:00 +10°C° 0 mm 1 mps 753 mmHg 93%
01:00 +10°C° 0 mm 1 mps 753 mmHg 93%
02:00 +10°C° 0 mm 1 mps 753 mmHg 94%
03:00 +10°C° 0 mm 1 mps 752 mmHg 94%
04:00 +10°C° 0 mm 1 mps 752 mmHg 93%
05:00 +10°C° 0 mm 1 mps 752 mmHg 92%
06:00 +10°C° 0 mm 1 mps 752 mmHg 91%
07:00 +11°C° 0 mm 1 mps 752 mmHg 87%
08:00 +12°C° 0 mm 1 mps 752 mmHg 83%
09:00 +13°C° 0 mm 2 mps 752 mmHg 79%
10:00 +13°C° 0.1 mm 2 mps 752 mmHg 77%
11:00 +14°C° 0.1 mm 2 mps 752 mmHg 76%
12:00 +14°C° 0.1 mm 2 mps 751 mmHg 75%
13:00 +14°C° 0.2 mm 3 mps 751 mmHg 74%
14:00 +14°C° 0.2 mm 3 mps 751 mmHg 74%
15:00 +15°C° 0.2 mm 4 mps 750 mmHg 74%
16:00 +15°C° 0.3 mm 4 mps 750 mmHg 77%
17:00 +14°C° 0.3 mm 4 mps 750 mmHg 80%
18:00 +14°C° 0.3 mm 4 mps 750 mmHg 82%
19:00 +13°C° 0.2 mm 4 mps 750 mmHg 86%
20:00 +12°C° 0.2 mm 3 mps 750 mmHg 90%
21:00 +11°C° 0.2 mm 3 mps 750 mmHg 94%
22:00 +10°C° 0 mm 3 mps 750 mmHg 95%
23:00 +9°C° 0 mm 3 mps 749 mmHg 95%

20 June, Sunday

Time Temperature Precipitation Wind Pressure Humidity
00:00 +9°C° 0 mm 3 mps 749 mmHg 96%
01:00 +9°C° 0 mm 3 mps 749 mmHg 96%
02:00 +9°C° 0 mm 3 mps 748 mmHg 96%
03:00 +9°C° 0 mm 3 mps 748 mmHg 95%
04:00 +8°C° 0 mm 4 mps 748 mmHg 94%
05:00 +10°C° 0 mm 4 mps 747 mmHg 93%
06:00 +9°C° 0 mm 5 mps 747 mmHg 92%
07:00 +10°C° 0 mm 5 mps 747 mmHg 87%
08:00 +10°C° 0 mm 6 mps 746 mmHg 82%
09:00 +11°C° 0 mm 7 mps 745 mmHg 77%
10:00 +10°C° 1.2 mm 7 mps 745 mmHg 83%
11:00 +9°C° 1.2 mm 7 mps 744 mmHg 89%
12:00 +8°C° 1.2 mm 7 mps 743 mmHg 94%
13:00 +8°C° 0.4 mm 7 mps 742 mmHg 95%
14:00 +8°C° 0.4 mm 7 mps 742 mmHg 95%
15:00 +8°C° 0.4 mm 7 mps 741 mmHg 96%
16:00 +8°C° 1.1 mm 7 mps 740 mmHg 96%
17:00 +9°C° 1.1 mm 6 mps 740 mmHg 96%
18:00 +9°C° 1.1 mm 5 mps 739 mmHg 97%
19:00 +10°C° 0.4 mm 4 mps 739 mmHg 97%
20:00 +10°C° 0.4 mm 3 mps 739 mmHg 97%
21:00 +10°C° 0.4 mm 1 mps 739 mmHg 97%
22:00 +11°C° 0 mm 1 mps 739 mmHg 97%
23:00 +11°C° 0 mm 1 mps 740 mmHg 97%
Show more